• In Hungary
  • List of Countries
  • For 7 days
  • Water Temperature
  • Satellite Maps
  • Weather Map
  • News
  • Weather Widgets
  • user-avatar
    Login

    Hourly Weather Shapkino

    Today, 16 July, Monday

    Time Temperature Precipitation Wind Pressure Humidity
    00:00 +23°C° 0.5 mm 1 mps 744 mmHg 82%
    01:00 +21°C° 1.5 mm 2 mps 744 mmHg 85%
    02:00 +21°C° 1.5 mm 2 mps 744 mmHg 88%
    03:00 +20°C° 1.5 mm 2 mps 744 mmHg 91%
    04:00 +21°C° 0.2 mm 3 mps 744 mmHg 89%
    05:00 +21°C° 0.2 mm 3 mps 743 mmHg 88%
    06:00 +21°C° 0.2 mm 3 mps 743 mmHg 87%
    07:00 +24°C° 0 mm 3 mps 743 mmHg 81%
    08:00 +26°C° 0 mm 4 mps 743 mmHg 76%
    09:00 +27°C° 0 mm 4 mps 743 mmHg 70%
    10:00 +28°C° 0.5 mm 4 mps 743 mmHg 67%
    11:00 +29°C° 0.5 mm 4 mps 742 mmHg 65%
    12:00 +30°C° 0.5 mm 4 mps 742 mmHg 62%
    13:00 +30°C° 0.7 mm 5 mps 742 mmHg 63%
    14:00 +30°C° 0.7 mm 5 mps 742 mmHg 63%
    15:00 +30°C° 0.7 mm 5 mps 742 mmHg 64%
    16:00 +29°C° 1 mm 5 mps 742 mmHg 68%
    17:00 +28°C° 1 mm 4 mps 741 mmHg 73%
    18:00 +27°C° 1 mm 3 mps 741 mmHg 77%
    19:00 +26°C° 0.4 mm 3 mps 741 mmHg 79%
    20:00 +25°C° 0.4 mm 3 mps 741 mmHg 81%
    21:00 +23°C° 0.4 mm 4 mps 741 mmHg 82%
    22:00 +23°C° 0.9 mm 4 mps 741 mmHg 85%
    23:00 +22°C° 0.9 mm 4 mps 741 mmHg 88%

    Tomorrow, 17 July, Tuesday

    Time Temperature Precipitation Wind Pressure Humidity
    00:00 +22°C° 0.9 mm 4 mps 741 mmHg 91%
    01:00 +21°C° 0.8 mm 3 mps 741 mmHg 92%
    02:00 +21°C° 0.8 mm 3 mps 740 mmHg 94%
    03:00 +21°C° 0.8 mm 3 mps 740 mmHg 95%
    04:00 +21°C° 0.7 mm 3 mps 740 mmHg 95%
    05:00 +21°C° 0.7 mm 4 mps 740 mmHg 95%
    06:00 +21°C° 0.7 mm 4 mps 740 mmHg 94%
    07:00 +21°C° 1.2 mm 4 mps 740 mmHg 94%
    08:00 +21°C° 1.2 mm 4 mps 740 mmHg 93%
    09:00 +21°C° 1.2 mm 4 mps 740 mmHg 92%
    10:00 +22°C° 0.8 mm 4 mps 740 mmHg 90%
    11:00 +22°C° 0.8 mm 4 mps 740 mmHg 88%
    12:00 +22°C° 0.8 mm 3 mps 740 mmHg 86%
    13:00 +23°C° 0.7 mm 4 mps 740 mmHg 85%
    14:00 +23°C° 0.7 mm 4 mps 740 mmHg 84%
    15:00 +23°C° 0.7 mm 4 mps 740 mmHg 82%
    16:00 +23°C° 0.5 mm 4 mps 740 mmHg 81%
    17:00 +23°C° 0.5 mm 5 mps 740 mmHg 80%
    18:00 +23°C° 0.5 mm 5 mps 740 mmHg 79%
    19:00 +22°C° 0 mm 4 mps 740 mmHg 82%
    20:00 +20°C° 0 mm 4 mps 740 mmHg 84%
    21:00 +19°C° 0 mm 3 mps 740 mmHg 87%
    22:00 +19°C° 0 mm 3 mps 741 mmHg 89%
    23:00 +19°C° 0 mm 3 mps 741 mmHg 90%

    Day after tomorrow, 18 July, Wednesday

    Time Temperature Precipitation Wind Pressure Humidity
    00:00 +18°C° 0 mm 3 mps 741 mmHg 92%
    01:00 +18°C° 0 mm 3 mps 741 mmHg 93%
    02:00 +18°C° 0 mm 3 mps 741 mmHg 93%
    03:00 +18°C° 0 mm 3 mps 741 mmHg 94%
    04:00 +18°C° 0 mm 3 mps 741 mmHg 92%
    05:00 +19°C° 0 mm 3 mps 741 mmHg 90%
    06:00 +19°C° 0 mm 3 mps 742 mmHg 88%
    07:00 +21°C° 0.2 mm 3 mps 742 mmHg 82%
    08:00 +23°C° 0.2 mm 4 mps 742 mmHg 76%
    09:00 +26°C° 0.2 mm 4 mps 742 mmHg 71%
    10:00 +26°C° 0.6 mm 5 mps 742 mmHg 67%
    11:00 +27°C° 0.6 mm 5 mps 742 mmHg 63%
    12:00 +28°C° 0.6 mm 5 mps 742 mmHg 60%
    13:00 +28°C° 0.6 mm 5 mps 742 mmHg 60%
    14:00 +28°C° 0.6 mm 5 mps 742 mmHg 60%
    15:00 +29°C° 0.6 mm 5 mps 742 mmHg 60%
    16:00 +28°C° 0.9 mm 5 mps 743 mmHg 64%
    17:00 +28°C° 0.9 mm 4 mps 743 mmHg 68%
    18:00 +27°C° 0.9 mm 3 mps 743 mmHg 72%
    19:00 +26°C° 0.6 mm 3 mps 743 mmHg 75%
    20:00 +24°C° 0.6 mm 3 mps 744 mmHg 79%
    21:00 +23°C° 0.6 mm 2 mps 744 mmHg 82%
    22:00 +21°C° 1 mm 3 mps 744 mmHg 84%
    23:00 +21°C° 1 mm 3 mps 744 mmHg 85%

    19 July, Thursday

    Time Temperature Precipitation Wind Pressure Humidity
    00:00 +20°C° 1 mm 3 mps 744 mmHg 87%
    01:00 +20°C° 0.5 mm 3 mps 744 mmHg 88%
    02:00 +20°C° 0.5 mm 3 mps 744 mmHg 89%
    03:00 +19°C° 0.5 mm 3 mps 744 mmHg 90%
    04:00 +20°C° 0.1 mm 3 mps 744 mmHg 89%
    05:00 +20°C° 0.1 mm 3 mps 744 mmHg 88%
    06:00 +20°C° 0.1 mm 3 mps 745 mmHg 88%
    07:00 +22°C° 0 mm 3 mps 745 mmHg 82%
    08:00 +25°C° 0 mm 4 mps 745 mmHg 76%
    09:00 +26°C° 0 mm 4 mps 745 mmHg 70%
    10:00 +27°C° 0.6 mm 5 mps 745 mmHg 66%
    11:00 +28°C° 0.6 mm 5 mps 746 mmHg 63%
    12:00 +29°C° 0.6 mm 5 mps 746 mmHg 59%
    13:00 +29°C° 0.1 mm 5 mps 746 mmHg 57%
    14:00 +30°C° 0.1 mm 5 mps 746 mmHg 55%
    15:00 +30°C° 0.1 mm 4 mps 746 mmHg 53%
    16:00 +30°C° 0 mm 4 mps 746 mmHg 56%
    17:00 +30°C° 0 mm 3 mps 746 mmHg 58%
    18:00 +30°C° 0 mm 2 mps 746 mmHg 61%
    19:00 +28°C° 0 mm 2 mps 746 mmHg 64%
    20:00 +27°C° 0 mm 2 mps 746 mmHg 67%
    21:00 +25°C° 0 mm 2 mps 746 mmHg 70%
    22:00 +25°C° 0 mm 2 mps 746 mmHg 72%
    23:00 +24°C° 0 mm 2 mps 746 mmHg 74%

    20 July, Friday

    Time Temperature Precipitation Wind Pressure Humidity
    00:00 +23°C° 0 mm 2 mps 746 mmHg 76%
    01:00 +22°C° 1.2 mm 3 mps 746 mmHg 79%
    02:00 +22°C° 1.2 mm 3 mps 746 mmHg 82%
    03:00 +21°C° 1.2 mm 4 mps 746 mmHg 86%
    04:00 +21°C° 2.1 mm 4 mps 746 mmHg 87%
    05:00 +21°C° 2.1 mm 4 mps 746 mmHg 87%
    06:00 +21°C° 2.1 mm 4 mps 746 mmHg 88%
    07:00 +22°C° 0.1 mm 4 mps 746 mmHg 85%
    08:00 +23°C° 0.1 mm 5 mps 745 mmHg 82%
    09:00 +26°C° 0.1 mm 5 mps 745 mmHg 78%
    10:00 +27°C° 0 mm 4 mps 745 mmHg 73%
    11:00 +29°C° 0 mm 4 mps 745 mmHg 69%
    12:00 +30°C° 0 mm 4 mps 745 mmHg 64%
    13:00 +32°C° 0.6 mm 4 mps 745 mmHg 61%
    14:00 +31°C° 0.6 mm 3 mps 744 mmHg 58%
    15:00 +33°C° 0.6 mm 3 mps 744 mmHg 55%
    16:00 +31°C° 0.5 mm 2 mps 744 mmHg 60%
    17:00 +31°C° 0.5 mm 2 mps 744 mmHg 64%
    18:00 +30°C° 0.5 mm 1 mps 744 mmHg 69%
    19:00 +28°C° 1.1 mm 2 mps 744 mmHg 74%
    20:00 +26°C° 1.1 mm 2 mps 744 mmHg 78%
    21:00 +25°C° 1.1 mm 3 mps 744 mmHg 83%
    22:00 +24°C° 1.9 mm 3 mps 744 mmHg 86%
    23:00 +22°C° 1.9 mm 3 mps 744 mmHg 88%

    21 July, Saturday

    Time Temperature Precipitation Wind Pressure Humidity
    00:00 +22°C° 1.9 mm 3 mps 745 mmHg 91%
    01:00 +23°C° 0 mm 2 mps 745 mmHg 91%
    02:00 +21°C° 0 mm 2 mps 745 mmHg 91%
    03:00 +21°C° 0 mm 2 mps 744 mmHg 90%
    04:00 +23°C° 0 mm 2 mps 744 mmHg 89%
    05:00 +23°C° 0 mm 1 mps 744 mmHg 88%
    06:00 +23°C° 0 mm 1 mps 745 mmHg 87%
    07:00 +25°C° 0.2 mm 1 mps 745 mmHg 81%
    08:00 +26°C° 0.2 mm 1 mps 745 mmHg 76%
    09:00 +28°C° 0.2 mm 1 mps 745 mmHg 70%
    10:00 +29°C° 0.2 mm 1 mps 745 mmHg 64%
    11:00 +30°C° 0.2 mm 1 mps 745 mmHg 58%
    12:00 +31°C° 0.2 mm 1 mps 745 mmHg 52%
    13:00 +31°C° 0 mm 1 mps 745 mmHg 52%
    14:00 +31°C° 0 mm 1 mps 745 mmHg 51%
    15:00 +32°C° 0 mm 1 mps 745 mmHg 51%
    16:00 +32°C° 0 mm 1 mps 745 mmHg 53%
    17:00 +32°C° 0 mm 1 mps 745 mmHg 56%
    18:00 +32°C° 0 mm 1 mps 745 mmHg 59%
    19:00 +30°C° 0 mm 1 mps 745 mmHg 62%
    20:00 +28°C° 0 mm 1 mps 745 mmHg 64%
    21:00 +26°C° 0 mm 1 mps 745 mmHg 67%
    22:00 +25°C° 1.3 mm 1 mps 745 mmHg 73%
    23:00 +24°C° 1.3 mm 1 mps 745 mmHg 79%
    Show more